Location: Unspecified
(0.0000°N, 0.0000°E)
Time: 06:35:17
(UTC+00:00)

deb Explorer IX - Pass Details

Date: 22 November 2019
Orbit: 546 x 1104 km, 38.8° (Epoch: 11 December)

Event Time Altitude Azimuth Distance (km) Brightness Sun altitude
Rises 19:11:16 0° 220° (SW) 3,684 ? -19.9°
Reaches altitude 10° 19:13:53 10° 216° (SW) 2,799 ? -20.5°
Maximum altitude 19:20:41 58° 138° (SE) 1,241 ? -22.1°
Enters shadow 19:23:06 40° 82° (E) 1,545 ? -22.7°
